Location: Newark
(49.8348°N, 24.0280°E)
Time: 03:51:13
(UTC+00:00)

Transit 2A - Pass Details

Date: 25 January 2020
Orbit: 600 x 959 km, 66.7° (Epoch: 18 February)

Event Time Altitude Azimuth Distance (km) Brightness Sun altitude
Rises 03:07:17 0° 321° (NW) 2,960 - -28.7°
Reaches altitude 10° 03:09:30 10° 318° (NW) 2,086 - -28.3°
Maximum altitude 03:14:09 62° 239° (WSW) 795 - -27.6°
Exits shadow 03:16:14 34° 171° (S) 1,196 7.0 -27.3°
Drops below altitude 10° 03:19:15 10° 159° (SSE) 2,285 8.7 -26.8°
Sets 03:21:47 0° 156° (SSE) 3,268 9.5 -26.4°
